Location: Votelez
(50.0000°N, 15.0000°E)
Time: 05:25:22
(UTC+01:00)

ARIANE 6 FM1 Upper Stage - Pass Details

Date: 17 February 2026
Orbit: 523 x 607 km, 62.0° (Epoch: 11 March)

Event Time Altitude Azimuth Distance (km) Brightness Sun altitude
Rises 20:17:32 0° 299° (WNW) 2,659 7.3 -28.6°
Reaches altitude 10° 20:20:55 10° 268° (W) 1,768 6.0 -29.2°
Maximum altitude 20:22:29 12° 244° (WSW) 1,639 5.5 -29.4°
Enters shadow 20:23:44 11° 225° (SW) 1,725 5.4 -29.6°
